Temp
5 5 5 5 5 5 5 5 5 5 4 4 4 4 4 4 5 5 5 5 5 5 5 5 5 5 5 4 5 5 4 4 4 4 4 4 4 4 4 4 4 4
5 5 5 5 5 5 5 5 5 4 4 4 4 4 5 5 5 5 5 5 5 4 4 4 4 4 4 4 4 4 4 4 4 4 4 4 4 4 4 4 4 4
6 5 5 5 5 5 5 5 5 4 4 5 5 5 5 5 5 5 5 5 5 4 4 4 4 4 4 4 4 4 4 4 4 4 4 4 4 4 4 4 4 4
6 6 5 5 5 5 5 5 5 5 5 5 5 5 5 5 5 5 5 5 5 4 4 4 4 4 4 4 4 4 4 4 4 4 4 4 4 3 4 4 4 4
6 6 6 5 5 5 5 5 5 5 6 5 5 5 5 5 5 5 5 5 5 5 4 4 4 4 4 4 4 4 4 4 3 3 3 3 3 3 4 4 3 3
6 6 6 5 5 5 5 5 5 5 5 5 5 5 5 5 5 5 5 5 5 5 5 5 4 4 4 4 4 4 4 4 3 3 3 3 3 3 3 3 3 3
6 6 6 5 5 5 5 5 6 5 5 5 5 5 5 5 5 5 5 5 5 5 5 5 5 4 4 4 4 4 4 4 4 3 3 3 3 3 3 3 3 3
6 6 6 5 5 5 5 6 6 5 5 5 5 5 5 5 5 5 5 5 5 5 5 5 5 4 5 5 4 4 4 4 4 4 3 3 3 3 3 3 3 3
6 6 6 6 5 5 5 6 5 5 5 5 5 5 5 5 5 5 5 5 4 4 4 4 4 4 4 4 4 4 4 4 4 4 4 3 3 3 3 3 3 3
6 6 6 5 5 5 5 5 5 5 5 5 5 5 5 5 5 5 5 5 4 4 4 4 4 4 4 4 4 4 4 4 4 4 4 4 4 4 4 4 4 4
6 6 5 5 5 5 5 5 5 5 5 5 5 5 5 5 5 5 5 4 4 4 4 4 4 4 3 3 3 3 3 3 4 4 4 4 4 4 4 4 4 4
6 5 5 5 5 5 5 5 5 5 5 5 5 5 5 5 5 4 4 4 4 4 4 4 4 4 3 3 3 3 3 3 4 4 4 4 4 4 4 4 3 3
6 5 5 5 5 5 5 5 5 5 5 5 5 5 5 5 4 4 4 4 4 4 4 4 4 4 3 3 3 3 3 3 4 4 4 4 4 4 4 4 3 3
6 6 5 5 5 5 5 5 5 5 5 5 5 5 5 4 4 4 4 4 4 4 4 4 4 4 4 3 3 3 3 3 3 4 4 4 4 3 4 4 3 3
6 6 6 5 5 5 5 5 5 5 5 5 5 5 4 4 4 4 4 4 4 4 4 4 4 4 3 3 3 3 3 3 3 3 4 4 3 3 3 3 3 3
6 6 6 5 5 5 5 5 5 5 4 4 4 4 4 4 4 4 4 4 4 4 4 3 3 3 3 3 3 3 3 3 3 3 3 4 3 3 3 3 3 3
6 6 6 6 5 5 5 5 5 5 4 4 4 4 4 4 4 4 4 3 3 3 3 4 3 3 4 4 4 4 4 4 3 3 3 3 3 3 3 3 3 3
6 6 6 5 5 5 5 5 5 5 4 4 4 4 4 4 4 4 3 3 3 3 3 3 4 4 4 4 4 4 4 4 4 4 4 3 3 3 3 3 3 2
6 6 5 5 5 5 5 5 5 5 4 4 4 4 4 4 4 4 3 3 3 3 3 3 3 4 4 4 4 4 4 4 4 4 3 3 3 3 3 3 2 2
5 5 5 5 5 5 5 5 5 5 5 4 4 4 4 4 3 3 3 3 3 3 3 3 3 4 4 4 4 4 4 4 3 3 3 3 3 3 3 3 3 2
5 5 5 5 5 5 5 5 5 5 4 4 4 4 3 3 3 3 3 3 3 3 3 3 3 4 4 4 4 4 4 3 3 3 3 3 3 3 3 3 2 2
5 5 5 5 5 5 4 4 4 4 4 4 4 4 3 3 3 3 3 3 3 3 4 4 3 3 4 4 4 3 3 3 3 3 3 2 3 3 2 2 2 2
5 5 5 5 5 4 4 4 4 4 4 4 4 4 3 3 3 3 3 3 3 3 4 4 4 3 3 3 3 3 3 3 3 3 3 3 3 3 2 2 2 2
5 5 5 5 4 4 4 3 3 3 4 4 4 4 3 3 3 3 3 3 3 3 4 4 4 3 3 3 3 3 3 3 3 3 3 3 2 2 2 2 2 2
5 5 5 5 4 4 4 3 3 3 3 3 3 3 3 3 3 3 3 3 3 3 3 3 3 3 3 3 3 3 3 3 3 3 3 3 2 2 2 2 2 2
5 5 5 5 4 4 4 3 3 3 3 3 3 3 3 3 3 3 3 3 3 3 3 3 3 3 3 3 3 3 3 3 3 3 3 2 2 2 2 2 2 2
Height
3136 3137 3138 3138 3139 3140 3140 3141 3141 3142 3142 3142 3143 3143 3144 3145 3146 3147 3147 3148 3148 3149 3149 3150 3151 3151 3152 3153 3154 3154 3155 3155 3156 3156 3157 3158 3158 3159 3159 3160 3160 3160
3134 3135 3136 3137 3138 3139 3139 3139 3140 3140 3140 3140 3141 3142 3143 3143 3144 3145 3146 3146 3147 3147 3148 3149 3149 3150 3151 3152 3152 3153 3153 3154 3154 3155 3155 3156 3156 3156 3157 3157 3158 3158
3133 3134 3135 3136 3137 3138 3138 3138 3138 3138 3139 3140 3142 3142 3142 3142 3142 3143 3144 3145 3145 3146 3146 3147 3148 3149 3149 3150 3151 3151 3152 3152 3153 3153 3154 3154 3154 3155 3155 3156 3156 3157
3131 3132 3133 3134 3135 3136 3136 3136 3136 3137 3138 3140 3140 3140 3139 3140 3141 3141 3142 3143 3144 3144 3145 3146 3146 3147 3147 3148 3149 3149 3150 3150 3151 3151 3152 3153 3153 3153 3154 3155 3155 3155
3129 3130 3131 3132 3133 3134 3134 3134 3135 3136 3137 3138 3138 3138 3138 3138 3139 3139 3140 3141 3142 3143 3143 3144 3144 3145 3145 3146 3147 3147 3148 3148 3149 3150 3150 3151 3151 3152 3153 3153 3154 3154
3127 3128 3129 3130 3131 3132 3132 3133 3133 3134 3135 3136 3136 3136 3136 3136 3136 3137 3138 3139 3140 3140 3141 3142 3143 3143 3144 3144 3145 3145 3146 3146 3147 3148 3148 3149 3150 3151 3152 3152 3152 3153
3125 3126 3127 3128 3129 3129 3130 3131 3132 3133 3134 3134 3134 3135 3135 3135 3135 3135 3135 3136 3137 3138 3139 3140 3141 3142 3142 3143 3144 3144 3144 3145 3145 3146 3146 3148 3149 3150 3150 3150 3151 3151
3123 3123 3124 3126 3126 3127 3129 3129 3130 3131 3131 3131 3132 3133 3133 3133 3133 3133 3133 3134 3134 3135 3136 3137 3139 3140 3141 3141 3142 3142 3143 3143 3143 3144 3145 3146 3146 3146 3146 3146 3147 3148
3120 3121 3122 3123 3123 3124 3126 3127 3128 3129 3129 3129 3130 3130 3131 3131 3131 3131 3131 3131 3132 3133 3134 3135 3136 3137 3138 3139 3140 3140 3141 3141 3142 3142 3143 3143 3143 3144 3145 3145 3146 3147
3118 3119 3120 3121 3121 3121 3123 3124 3125 3126 3126 3126 3127 3127 3128 3129 3129 3129 3129 3129 3130 3131 3132 3133 3133 3134 3135 3136 3137 3138 3138 3138 3139 3140 3141 3142 3144 3146 3146 3147 3147 3148
3116 3117 3118 3118 3118 3118 3119 3121 3122 3123 3123 3123 3124 3125 3126 3126 3126 3126 3127 3127 3128 3128 3129 3130 3131 3132 3133 3134 3135 3135 3135 3136 3137 3138 3139 3140 3142 3143 3144 3145 3145 3146
3114 3115 3115 3116 3115 3115 3116 3118 3119 3120 3121 3121 3121 3122 3123 3123 3123 3123 3124 3124 3125 3125 3126 3127 3128 3129 3130 3131 3131 3132 3134 3135 3136 3137 3137 3138 3138 3139 3141 3142 3142 3143
3112 3112 3113 3113 3113 3112 3113 3115 3116 3117 3118 3118 3118 3119 3119 3120 3120 3121 3121 3121 3122 3122 3123 3124 3125 3126 3126 3127 3128 3130 3132 3134 3134 3135 3135 3135 3136 3137 3138 3139 3139 3140
3110 3110 3111 3111 3110 3109 3111 3113 3114 3114 3115 3116 3116 3116 3117 3117 3117 3117 3118 3119 3120 3120 3120 3121 3122 3122 3123 3124 3125 3127 3129 3130 3131 3132 3132 3132 3133 3134 3135 3136 3137 3137
3108 3108 3108 3109 3108 3107 3108 3110 3111 3112 3112 3113 3114 3114 3115 3114 3114 3114 3115 3117 3118 3118 3118 3118 3119 3120 3120 3121 3123 3124 3126 3127 3128 3128 3129 3129 3130 3131 3131 3132 3133 3133
3106 3106 3106 3107 3106 3106 3106 3106 3107 3108 3109 3110 3111 3112 3112 3112 3112 3112 3113 3114 3115 3115 3116 3116 3117 3118 3119 3119 3120 3122 3123 3124 3125 3126 3126 3127 3127 3128 3128 3129 3130 3130
3104 3104 3104 3105 3105 3104 3104 3104 3104 3105 3106 3107 3108 3109 3110 3110 3110 3110 3111 3111 3111 3112 3113 3114 3116 3117 3117 3118 3119 3119 3121 3122 3122 3123 3124 3124 3124 3125 3125 3125 3126 3126
3102 3102 3102 3102 3102 3102 3102 3101 3101 3101 3102 3103 3105 3106 3106 3107 3107 3108 3108 3108 3109 3109 3110 3112 3113 3114 3114 3115 3116 3117 3118 3119 3120 3121 3121 3121 3121 3122 3122 3122 3122 3123
3099 3100 3100 3100 3100 3100 3099 3099 3099 3099 3099 3100 3101 3102 3102 3103 3104 3105 3106 3106 3106 3107 3107 3108 3109 3110 3111 3112 3113 3114 3115 3116 3117 3118 3118 3118 3118 3119 3119 3119 3119 3120
3096 3097 3097 3097 3097 3097 3096 3096 3097 3097 3097 3098 3098 3098 3099 3100 3101 3102 3102 3103 3103 3104 3104 3105 3106 3106 3107 3108 3109 3109 3110 3111 3112 3113 3114 3115 3115 3116 3116 3116 3116 3116
3092 3093 3094 3094 3094 3094 3094 3094 3095 3095 3096 3095 3096 3096 3096 3097 3098 3098 3099 3100 3100 3101 3101 3101 3102 3103 3103 3104 3104 3104 3105 3107 3109 3109 3109 3110 3111 3112 3112 3112 3112 3113
3089 3089 3090 3090 3091 3090 3091 3091 3092 3093 3093 3093 3093 3094 3094 3094 3095 3095 3096 3097 3097 3097 3098 3099 3099 3099 3099 3100 3100 3100 3101 3104 3106 3106 3105 3107 3107 3108 3108 3109 3109 3110
3085 3085 3086 3086 3087 3087 3087 3088 3089 3090 3091 3090 3090 3091 3092 3092 3093 3093 3093 3094 3094 3095 3095 3096 3096 3096 3096 3096 3097 3097 3098 3100 3102 3102 3102 3103 3104 3104 3105 3105 3106 3106
3081 3081 3081 3082 3082 3083 3084 3085 3086 3087 3087 3088 3088 3088 3089 3090 3090 3090 3090 3091 3092 3092 3093 3093 3094 3093 3093 3094 3094 3094 3095 3096 3097 3098 3099 3099 3100 3101 3101 3102 3103 3103
3076 3077 3077 3077 3078 3079 3080 3082 3083 3084 3084 3085 3085 3085 3086 3087 3087 3087 3088 3088 3089 3089 3090 3091 3091 3091 3091 3091 3091 3091 3092 3093 3094 3094 3095 3096 3097 3097 3098 3098 3099 3099
3072 3072 3072 3073 3074 3075 3077 3078 3079 3080 3081 3081 3082 3083 3084 3084 3084 3085 3086 3086 3086 3086 3087 3088 3089 3089 3089 3089 3089 3089 3089 3090 3090 3091 3092 3093 3093 3094 3094 3095 3095 3096
Wind_Speed
16 15 15 15 15 15 14 13 12 12 12 12 12 12 12 11 10 9 9 10 12 14 15 15 14 14 14 14 14 14 13 13 13 13 13 13 14 14 13 13 13 13
19 18 18 17 16 16 16 15 15 14 15 15 14 13 13 12 11 10 10 11 11 13 15 15 15 16 15 15 15 14 14 14 14 14 14 14 15 14 14 14 13 13
22 21 20 19 18 18 17 17 17 18 18 16 15 16 17 16 14 13 12 12 13 13 15 15 15 16 16 16 15 15 15 15 15 15 14 14 15 14 14 14 14 13
23 23 22 21 20 20 20 20 20 20 19 16 16 17 19 19 18 16 15 14 14 14 15 15 15 15 16 16 16 16 16 15 15 15 15 15 15 14 14 14 13 11
24 24 23 23 23 22 22 22 21 21 20 18 17 17 18 20 20 20 18 17 16 16 16 16 16 16 16 17 17 17 16 16 16 16 16 16 16 15 14 13 12 11
23 23 24 24 24 24 24 23 22 22 21 21 20 19 19 21 22 22 21 20 20 19 18 17 17 17 17 17 17 16 17 17 17 17 17 18 17 16 15 14 13 13
22 23 23 24 24 25 24 24 24 23 23 23 23 21 20 21 23 23 23 23 23 22 21 20 19 18 18 18 17 17 17 18 18 18 18 18 18 17 17 16 15 14
21 22 23 23 24 26 25 25 24 23 23 24 24 23 22 22 23 24 24 24 24 23 23 22 20 19 20 20 19 18 18 19 19 19 20 20 20 20 20 19 18 16
22 22 22 23 24 26 26 24 23 22 23 24 23 24 23 23 23 24 25 25 25 24 23 23 21 21 21 22 21 20 20 20 20 20 22 23 22 20 19 18 18 17
23 22 22 22 24 26 26 25 24 23 23 23 23 23 23 23 24 24 25 25 25 24 23 22 22 21 21 21 21 21 22 22 22 21 22 24 21 19 17 17 18 18
22 22 22 22 23 24 24 24 24 24 23 23 22 22 23 23 24 24 24 24 23 23 22 21 21 21 22 22 22 22 23 23 23 23 24 25 23 22 21 21 21 22
21 21 21 21 22 23 22 22 22 22 22 22 21 21 21 21 22 22 23 22 22 22 22 22 22 22 22 23 24 24 24 24 25 25 26 26 26 25 25 24 24 23
20 21 21 20 21 22 22 21 21 21 20 20 20 20 20 19 20 21 22 23 22 23 24 24 25 25 23 23 24 25 25 25 26 26 26 27 27 28 27 26 25 25
20 20 21 21 22 23 22 21 20 20 20 19 19 19 19 19 19 21 23 22 22 24 26 26 27 28 27 25 24 24 24 26 27 28 28 28 28 29 29 28 27 27
17 19 20 21 23 24 24 22 21 21 21 20 20 20 19 19 20 22 22 21 20 22 24 26 26 28 28 26 25 24 25 26 28 29 29 29 29 30 30 29 28 28
10 13 17 20 22 24 26 26 24 23 22 21 20 20 20 19 20 22 22 21 21 20 20 22 24 25 25 24 23 24 24 26 28 29 30 30 30 29 29 28 27 28
10 11 13 16 19 23 25 27 27 26 25 23 22 20 20 19 20 20 21 21 21 20 18 18 20 23 24 24 23 24 24 25 26 28 28 29 28 27 27 27 27 27
13 14 15 16 17 20 23 25 27 27 27 26 23 21 20 20 20 19 19 19 20 19 18 18 20 22 25 25 25 25 25 25 27 28 27 27 26 25 24 25 25 25
16 17 17 18 19 20 22 24 26 27 28 27 24 22 21 21 21 19 18 19 19 19 19 19 20 23 25 26 26 26 26 26 27 27 27 25 24 23 22 22 23 23
18 19 19 20 21 21 23 25 25 26 27 27 26 24 23 22 22 21 20 20 21 21 21 21 21 23 25 26 26 26 26 25 25 26 26 25 23 22 22 22 23 23
20 21 22 22 23 23 24 25 26 26 27 28 28 26 24 23 23 23 22 21 22 22 22 21 22 23 24 25 26 26 25 24 23 25 25 24 23 22 22 23 24 24
23 24 25 24 24 25 25 25 26 27 28 29 29 27 26 25 24 23 22 21 22 22 22 21 22 23 24 24 24 24 24 23 23 24 24 24 23 23 23 24 24 24
25 26 27 26 26 27 27 26 25 27 28 29 30 28 27 25 24 23 22 21 21 22 21 21 21 22 23 23 23 23 23 23 23 24 25 24 24 24 24 25 24 24
26 27 28 28 28 28 27 26 26 27 29 30 30 28 27 26 25 24 23 21 21 21 20 20 19 20 21 21 22 23 23 24 24 24 25 25 25 25 25 25 24 24
27 28 28 28 28 28 27 26 26 27 29 30 30 29 28 28 27 25 22 20 20 19 19 18 17 17 19 20 21 22 23 24 24 24 24 24 24 24 24 24 23 23
28 28 27 27 28 27 27 27 27 29 30 31 31 30 30 29 28 25 22 19 18 18 18 17 16 16 17 18 20 22 23 24 24 24 24 23 24 24 24 24 23 23
Wind_Direction
238 239 242 246 252 258 262 265 267 271 274 273 271 273 275 275 274 270 265 261 253 247 247 251 254 256 257 261 263 264 263 261 261 263 263 264 266 266 265 265 268 270
235 236 238 241 246 253 258 262 265 267 266 263 262 265 270 271 270 267 261 258 254 249 249 251 254 255 255 256 257 258 257 257 257 258 258 259 258 256 258 260 261 262
232 234 235 237 241 247 253 257 261 265 266 268 271 268 263 261 262 263 262 258 254 250 249 250 253 253 252 252 252 251 251 251 251 253 255 256 254 250 251 255 255 255
232 233 234 235 237 242 247 252 255 259 262 268 273 268 260 257 257 258 261 262 259 255 252 252 253 252 250 250 249 247 246 246 247 250 251 251 249 246 245 248 248 248
234 234 234 235 237 240 244 248 253 257 259 262 265 265 262 259 258 256 258 261 263 262 258 255 252 250 249 249 249 246 244 243 244 247 249 249 248 246 242 242 243 245
236 236 237 237 239 241 244 249 255 257 259 259 260 262 262 259 257 257 257 257 259 259 258 256 252 249 249 251 251 249 245 243 243 245 248 249 249 247 241 239 241 246
239 239 240 241 243 244 245 251 254 255 257 258 259 260 259 257 257 258 259 259 259 258 258 257 254 252 252 251 251 250 246 242 241 242 246 250 251 249 245 243 245 250
239 240 242 244 246 247 248 250 252 252 255 257 258 258 257 257 258 259 261 261 262 263 263 263 262 259 256 254 251 248 245 241 239 240 244 247 246 243 240 239 240 244
237 239 242 245 249 251 252 253 254 254 255 256 258 259 259 258 258 258 260 262 263 263 264 266 266 263 260 257 253 249 245 243 241 242 245 246 245 243 244 246 248 249
239 240 243 247 250 252 253 254 256 255 254 255 257 259 260 260 259 258 259 261 263 264 264 263 262 260 258 258 256 252 247 244 243 244 249 253 256 260 263 266 267 267
243 244 247 250 251 252 253 253 253 253 254 255 256 257 259 261 261 260 260 259 259 260 260 258 256 255 257 258 257 252 248 248 250 251 254 257 259 261 262 264 267 269
246 248 251 253 253 253 252 250 250 250 251 253 255 256 257 259 260 261 260 259 256 255 254 253 251 250 254 257 257 255 253 253 255 256 257 259 259 258 258 261 266 271
247 249 251 251 252 253 251 249 249 248 248 249 251 253 255 258 259 260 259 257 256 255 256 256 254 250 250 253 258 260 260 256 255 255 256 260 263 263 263 264 268 272
250 251 251 249 250 252 252 251 251 251 251 250 250 251 252 254 257 257 256 257 258 260 263 264 260 253 249 250 256 262 263 261 259 258 258 259 262 264 265 266 268 270
259 259 258 255 254 255 256 255 253 253 253 252 252 251 249 248 251 253 254 257 261 264 267 266 260 253 250 251 255 261 264 264 264 263 262 261 262 262 263 264 264 265
282 278 271 266 263 261 261 259 256 254 253 252 252 251 248 246 248 251 255 260 262 263 264 261 254 251 251 252 255 259 261 262 263 263 264 264 263 262 261 262 262 261
304 304 296 284 273 267 264 262 258 255 252 251 251 251 251 248 246 250 255 258 258 257 257 254 248 246 247 249 253 258 259 260 260 260 261 262 261 259 258 260 261 261
297 304 307 303 290 276 269 264 260 256 253 253 252 250 249 248 245 247 250 252 254 255 256 253 245 241 243 246 252 257 259 258 258 257 257 257 257 258 259 260 261 262
289 295 302 305 299 285 274 268 262 258 255 253 251 248 247 247 245 246 249 253 257 258 258 255 247 242 243 247 253 257 257 256 255 256 257 257 258 262 265 264 263 264
283 289 296 299 295 284 274 269 264 259 254 250 247 246 246 246 247 249 252 257 260 261 261 259 255 250 249 251 256 258 259 258 258 260 263 263 264 266 268 268 267 266
280 287 293 294 288 278 270 265 263 260 255 249 245 244 246 245 246 248 253 257 261 265 265 263 260 258 257 258 260 262 263 262 261 263 266 267 268 269 269 269 268 268
281 287 291 288 281 272 265 262 260 258 255 251 246 244 244 244 244 247 252 257 262 266 267 265 261 260 261 262 263 264 266 266 264 263 265 267 269 271 271 271 271 271
279 285 287 282 273 265 261 259 257 256 254 251 247 244 243 242 242 245 250 256 262 266 268 266 262 260 261 262 263 264 266 266 265 264 265 266 267 269 271 272 273 273
273 279 280 274 265 257 254 253 252 253 252 250 246 243 241 240 241 244 248 255 261 264 266 264 260 259 259 260 262 264 265 265 264 263 265 266 266 268 271 272 274 274
265 272 274 268 258 250 246 245 246 249 249 248 244 241 239 239 240 243 248 253 258 259 260 257 254 256 259 260 262 263 264 264 264 263 264 265 266 268 270 271 272 272
261 266 268 264 254 246 242 240 241 244 246 245 243 241 240 240 242 245 248 252 253 253 254 251 249 253 258 261 263 264 264 265 265 266 267 267 267 268 269 270 271 270